EW5212 Weather Reports


time (UTC)temp
F
wind
direction
speed
knots
gust
knots
rain 1hr
in
rain 24hr
in
rain mn
in
humidity
%
barometer
mb
20260504050016 41 0.0 0.0 0.00 0.00 0.00 87 1017.2
20260504045016 41 0.0 0.0 0.00 0.00 0.00 87 1017.2
20260504044015 41 0.0 0.0 0.00 0.00 0.00 87 1017.2
20260504043016 41 0.0 0.0 0.00 0.00 0.00 86 1017.0
20260504042015 41 0.0 0.0 0.00 0.00 0.00 86 1017.1
20260504041015 41 0.0 0.0 0.00 0.00 0.00 86 1017.1
20260504040036 41 0.0 0.0 0.00 0.00 0.00 86 1016.9
20260504035035 41 0.0 0.0 0.00 0.00 0.00 86 1016.8
20260504034015 40 0.0 0.0 0.00 0.00 0.00 85 1016.8
20260504033015 40 0.0 0.0 0.00 0.00 0.00 85 1016.9
20260504032015 40 0.0 0.0 0.00 0.00 0.00 84 1016.9
20260504031015 41 0.0 0.0 0.00 0.00 0.00 84 1016.9
20260504030015 41 0.0 0.0 0.00 0.00 0.00 83 1016.8
20260504025015 42 0.0 0.0 0.00 0.00 0.00 82 1016.8
20260504024015 42 0.0 0.0 0.00 0.00 0.00 82 1016.9
20260504023015 42 0.0 0.0 0.00 0.00 0.00 81 1016.9
20260504022015 43 0.0 0.0 0.00 0.00 0.00 81 1016.9
20260504021015 44 0.0 0.0 0.00 0.00 0.00 79 1016.7
20260504020035 44 0.0 0.0 0.00 0.00 0.00 78 1016.6
20260504015035 45 0.0 0.0 0.00 0.00 0.00 78 1016.6
20260504014015 45 0.0 0.0 0.00 0.00 0.00 76 1016.6
20260504013015 46 0.0 0.0 0.00 0.00 0.00 75 1016.6
20260504012015 47 0.0 0.0 0.00 0.00 0.00 74 1016.4
20260504011015 48 0.0 0.0 0.00 0.00 0.00 72 1016.3
20260504010015 49 0.0 0.0 0.00 0.00 0.00 71 1016.5
20260504005015 50 0.0 0.0 0.00 0.00 0.00 68 1016.4
20260504004015 51 0.0 0.0 0.00 0.00 0.00 65 1016.3
20260504003015 53 0.0 0.0 0.00 0.00 0.00 62 1016.2
20260504002015 54 0.0 0.0 0.00 0.00 0.00 58 1016.0
20260504001015 56 0.0 0.0 0.00 0.00 0.00 54 1016.0
20260504000015 58 0.0 0.0 0.00 0.00 0.00 51 1015.9
20260503235015 60 0.0 0.0 0.00 0.00 0.00 48 1015.8
20260503234035 61 0.0 2.6 0.00 0.00 0.00 39 1015.8
20260503233035 62 0.0 0.0 0.00 0.00 0.00 38 1015.7
20260503232017 64 0.0 0.0 0.00 0.00 0.00 38 1015.7
20260503231017 63 0.0 2.6 0.00 0.00 0.00 36 1015.5
20260503230035 63 270 0.9 3.5 0.00 0.00 0.00 35 1015.6
20260503225017 64 293 0.9 3.5 0.00 0.00 0.00 35 1015.7
20260503224017 65 270 0.9 3.5 0.00 0.00 0.00 34 1015.8
20260503223017 64 0.0 0.0 0.00 0.00 0.00 38 1015.7
20260503222017 65 270 0.9 5.2 0.00 0.00 0.00 34 1015.9
20260503221017 65 270 0.9 3.5 0.00 0.00 0.00 35 1016.1
20260503220037 66 293 0.9 2.6 0.00 0.00 0.00 33 1016.1
20260503215017 67 270 1.7 6.1 0.00 0.00 0.00 32 1016.3
20260503214017 67 0.0 1.7 0.00 0.00 0.00 32 1016.1
20260503213017 66 270 1.7 7.8 0.00 0.00 0.00 32 1016.2
20260503212017 66 270 2.6 5.2 0.00 0.00 0.00 32 1016.1
20260503211017 67 270 0.9 6.1 0.00 0.00 0.00 34 1016.1
20260503210017 66 270 0.9 5.2 0.00 0.00 0.00 33 1016.2
20260503205057 66 45 1.7 5.2 0.00 0.00 0.00 34 1016.2
20260503204037 66 270 1.7 7.8 0.00 0.00 0.00 33 1016.2
20260503203017 66 270 1.7 7.8 0.00 0.00 0.00 34 1016.3
20260503202057 66 270 1.7 7.0 0.00 0.00 0.00 33 1016.5
20260503201017 66 293 1.7 5.2 0.00 0.00 0.00 35 1016.5
20260503200017 66 293 0.9 3.5 0.00 0.00 0.00 35 1016.6
20260503195017 67 293 0.9 2.6 0.00 0.00 0.00 33 1016.8
20260503194017 65 270 0.9 2.6 0.00 0.00 0.00 34 1017.0
20260503193017 65 293 1.7 8.7 0.00 0.00 0.00 33 1017.1
20260503192017 65 270 2.6 6.1 0.00 0.00 0.00 34 1017.2
20260503191016 64 293 2.6 7.0 0.00 0.00 0.00 35 1017.4
20260503190017 65 293 1.7 4.3 0.00 0.00 0.00 33 1017.7
20260503185017 64 270 1.7 6.1 0.00 0.00 0.00 33 1017.8
20260503184057 64 293 1.7 6.1 0.00 0.00 0.00 35 1017.9
20260503183017 64 45 0.9 2.6 0.00 0.00 0.00 35 1017.9
20260503182017 64 270 1.7 6.1 0.00 0.00 0.00 36 1018.0
20260503181017 63 270 2.6 7.8 0.00 0.00 0.00 37 1018.1
20260503180017 63 270 1.7 5.2 0.00 0.00 0.00 36 1018.1
20260503175036 62 248 2.6 6.1 0.00 0.00 0.00 38 1018.2
20260503174017 62 45 1.7 5.2 0.00 0.00 0.00 38 1018.1
20260503173017 62 270 2.6 9.6 0.00 0.00 0.00 36 1018.4
20260503172016 62 270 1.7 4.3 0.00 0.00 0.00 36 1018.4
20260503171036 61 68 1.7 6.1 0.00 0.00 0.00 40 1018.6
20260503131017 51 0.0 1.7 0.00 0.00 0.00 63 1019.2
20260503081036 47 0.0 0.0 0.00 0.00 0.00 72 1015.9
20260503072016 48 0.0 0.0 0.00 0.00 0.00 70 1015.4
20260503071056 48 0.0 0.0 0.00 0.00 0.00 69 1015.3